Location: Arbon
(43.0005°N, 0.7472°E)
Time: 11:45:53
(UTC+00:00)

SL-08 R/B - Pass Details

Date: 22 April 2026
Orbit: 667 x 728 km, 98.5° (Epoch: 15 May)

Event Time Altitude Azimuth Distance (km) Brightness Sun altitude
Rises 20:08:47 0° 17° (NNE) 3,159 6.9 -14.2°
Reaches altitude 10° 20:11:07 10° 21° (NNE) 2,234 6.1 -14.6°
Maximum altitude 20:15:58 59° 101° (E) 839 3.4 -15.3°
Drops below altitude 10° 20:20:45 10° 181° (S) 2,206 5.6 -16.0°
Enters shadow 20:21:19 - 182° (S) 2,425 5.8 -16.1°
